Showing default

ACS 3, 59588

Orbit data source: Space-Track

ACS 3, 59588 is a payload satellite owned by ARC (US) in SSO that was launched on Tue, 23 Apr 2024 UTC via an ELECTRON launch vehicle from the Rocket Lab Launch Complex (RLLC). Payload-class satellites include a variety of spacecraft equipped with specific instruments for various scientific and technological missions. These include communications satellites like Starlink; space stations such as the ISS; scientific satellites like the Hubble; Earth observation satellites from companies like Planet Labs, Umbra, and HawkEye 360; GPS; miniature CubeSats for education and research; and military/defense satellites.

Loading next visibility...
Identifier
59588, 2024-077B
Orbit
SSO
Last TLE update
13 hours ago
Origin
Manufacturer
ARC/NANAVU
Mission
Operational spacecraft
Bus & Motor
CUBESAT 12U, Unknown motor
Mass
16.1 kg wet, 16.1 kg dry
Launch date (UTC)
2024-04-23 (1 year ago)
Launch vehicle
ELECTRON
Launch site
Rocket Lab Launch Complex (RLLC)
Object type
Payload
Rocket body
Debris
Shape & HBR
Unknown
Radar Cross Section
Large (>1 m²)

Expand to show TLE details & history

TLE from 13 hours ago
0 ACS 3
1 59588U 24077B   25189.81051012  .00010695  00000-0  10305-1 0  9999
2 59588  97.4539 179.5413 0074584  64.8535 296.0335 13.78844837 60471
Epoch: 2025-07-08T19:27Z
TLE epoch observation values (Epoch: 2025-07-08T19:27:08.074Z)
Latitude
-0.00005°
Longitude
-39.24249°
Altitude
947.161 km
Speed
7.39 km/s
True Right ascension
11h 58m 09s
True Declination
0° 00' 00"
Sunlit
Object was in daylight at epoch
Visualization orbit readout
Latitude
67.59256°
Longitude
159.57499°
Altitude
942.673 km
Speed
7.405 km/s
Apparent Right ascension
06h 07m 17s
Apparent Declination
28° 38' 55"
Sunlit
Object is in daylight
Visualization observer readout
Local Sidereal Time
20:20:03
Azimuth
29.799° NE
Elevation
-14.81°
Doppler factor
1
Orbital elements
Apogee altitude
1,019.915 km
Perigee altitude
910.376 km
Semi-major axis
7,343.283 km
Eccentricity
0.00746
Inclination
97.4539°
RAAN
179.5413°
Arg. of periapsis
64.8535°
True anomaly
Unknown
Mean anomaly
296.0335°
Eccentric anomaly
Unknown
Mean motion
3.44912 °/min
Orbital period
104.37 mins
BSTAR
0.010305
Loading maneuver chart data...
Loading SW <> Apogee altitude chart data...
Loading historical data...
Loading historical data...
Loading historical data...
Loading historical data...
Loading historical data...
Loading historical data...
Loading historical data...
Other satellites on launch #77 in the year 2024 (2024-04-23 UTC)

ACS 3 Visibility forecast

Observer location: undefined°, undefined°

Span
Click to sort rows by Start time (UTC) header in descending order
Start Az.
Max El. time (UTC)
Max El. Az.
Max El.
End time (UTC)
End Az.
11 mins2025-07-09 11:42:26.814Z22.285° NNE2025-07-09 11:47:26.814Z81.587° E38.638°2025-07-09 11:53:26.814Z174.805° S
7 mins2025-07-09 13:27:26.814Z335.407° NNW2025-07-09 13:30:26.814Z299.625° NW20.966°2025-07-09 13:34:26.814Z251.965° W
4 mins2025-07-09 21:46:26.814Z78.032° E2025-07-09 21:48:26.814Z55.22° ENE13.979°2025-07-09 21:50:26.814Z33.926° NE
9 mins2025-07-09 23:26:26.814Z171.902° S2025-07-09 23:30:26.814Z250.6° W44.657°2025-07-09 23:35:26.814Z345.495° N
|